[[{"header":{"parameterUnit":"m.s-1","parameterCategory":1,"la1":30.2991,"la2":30.254,"lo1":-89.0895,"lo2":-89.0444,"dy":0.0017,"dx":0.0017,"nx":28,"ny":28,"refTime":"2023-10-14T21:00:00:Z","depth":0,"parameterNumber":2,"parameterNumberName":"U-component_of_WINDS"},"data":[0,0,0,0,0,0,0,0,0,0,0,0,0,0,0,0,0,0,0,0,0,0,0,0,0,0,0,0,0,0,0,0,0,0,0,0,0,0,0,0,0,0,0,0,0,0,0,0,0,0,0,0,0,0,0,0,0,0,2.3425,2.3425,0,2.3452,2.3452,2.3452,2.3436,2.3435,2.3434,2.3433,2.3459,2.346,2.3462,0,0,0,0,0,0,0,0,0,0,0,0,0,2.3358,2.3359,2.3425,2.3425,2.3425,2.3452,2.3452,2.3452,2.3436,2.3435,2.3434,2.3433,2.3459,2.346,2.3462,0,0,0,0,0,0,0,0,0,0,0,0,0,2.3386,2.336,2.3425,2.342,2.342,2.3451,2.3452,2.3452,2.3436,2.3435,2.3434,2.3432,2.3458,2.346,2.3462,2.3499,0,0,2.3469,2.3469,0,0,0,0,0,0,0,0,2.3385,2.3389,2.3421,2.3421,2.3421,2.3439,2.3438,2.3468,2.3436,2.343,2.3433,2.3432,2.3453,2.3456,2.3463,2.35,2.3501,2.3469,2.347,2.3471,2.3472,0,0,0,0,0,0,0,2.3383,2.3387,2.3435,2.3421,2.3421,2.3417,2.3419,2.3443,2.3448,2.343,2.3429,2.3433,2.3453,2.3461,2.3464,2.3501,2.3469,2.3471,2.3472,2.3473,2.357,2.3571,0,0,0,0,0,0,2.3381,2.3386,2.3434,2.3436,2.3399,2.3419,2.3422,2.3434,2.3447,2.3448,2.3434,2.3432,2.3458,2.3461,2.3464,2.3508,2.3471,2.3473,2.3474,2.3569,2.357,2.3572,0,0,0,0,0,0,2.338,2.3386,2.3433,2.3411,2.3416,2.3421,2.3435,2.3435,2.3444,2.345,2.345,2.3441,2.3457,2.3461,2.3491,2.3509,2.3474,2.3476,2.3567,2.3569,2.3571,2.3596,0,0,0,0,0,0,2.3378,2.3385,2.3399,2.3411,2.3418,2.3459,2.3436,2.3437,2.3448,2.3445,2.3457,2.3458,2.3457,2.3488,2.3493,2.3511,2.3477,2.3566,2.3568,2.3571,2.3593,2.3598,2.3603,0,0,0,0,0,2.3376,2.3405,2.34,2.3406,2.3435,2.346,2.3464,2.3462,2.3449,2.3463,2.3467,2.3458,2.3506,2.3491,2.3496,2.3516,2.3564,2.3567,2.357,2.3591,2.3597,2.3602,0,0,0,0,0,0,2.3393,2.3406,2.3401,2.3435,2.3447,2.3457,2.3475,2.3469,2.3484,2.3481,2.3478,2.3481,2.3511,2.3517,2.3499,2.3552,2.3533,2.3538,2.3547,2.3553,2.3558,2.3555,2.3479,0,0,0,0,0,2.3402,2.3421,2.3431,2.346,2.3466,2.347,2.348,2.3478,2.349,2.3495,2.3501,2.3513,2.3531,2.3542,2.3559,2.3595,2.3597,2.3611,2.3616,2.3619,2.3623,2.3642,2.3648,2.3582,2.3582,2.3581,0,0,2.3418,2.3427,2.3439,2.3463,2.3472,2.3492,2.3474,2.3496,2.351,2.3498,2.3526,2.3531,2.3544,2.3577,2.3591,2.3582,2.3642,2.3623,2.3626,2.3627,2.3646,2.3652,2.3657,2.3584,2.3583,2.3583,0,0,2.3457,2.3467,2.3492,2.3502,2.3516,2.3519,2.3525,2.3537,2.354,2.3569,2.356,2.3578,2.3609,2.3618,2.3627,2.3673,2.3665,2.3679,2.3702,2.3721,2.3726,2.3731,2.3747,2.3753,2.3682,2.3682,2.3682,0,2.3476,2.3506,2.3505,2.3528,2.3539,2.3531,2.3556,2.3565,2.3584,2.3592,2.3582,2.3621,2.3629,2.3664,2.3675,2.3683,2.3689,2.3676,2.3726,2.3731,2.3735,2.375,2.3756,2.3684,2.3684,2.3684,2.3683,0,2.3527,2.3549,2.3567,2.3587,2.36,2.3624,2.3627,2.364,2.3638,2.3642,2.3671,2.3681,2.3699,2.3708,2.3705,2.3743,2.3736,2.3726,2.3707,2.3743,2.3757,2.3763,2.3686,2.3686,2.3685,2.3685,0,0,2.3576,2.3597,2.3604,2.3613,2.3629,2.3645,2.367,2.3689,2.37,2.3714,2.3734,2.3762,2.3753,2.3763,2.3762,2.3779,2.3814,2.3766,2.3767,2.3774,2.3856,2.3862,2.3869,2.3809,2.3811,2.3811,2.3854,0,2.3617,2.3659,2.366,2.3698,2.3718,2.3711,2.3732,2.3745,2.3749,2.3767,2.3772,2.3791,2.3778,2.3784,2.3801,2.3806,2.383,2.3803,2.3827,2.3828,2.3822,2.3876,2.3883,2.3923,2.386,2.3861,2.3861,0,2.3668,2.3685,2.3726,2.374,2.3748,2.3767,2.3786,2.3803,2.3817,2.3819,2.3832,2.3828,2.3853,2.3834,2.3868,2.385,2.386,2.3864,2.3866,2.3867,2.3845,2.3877,2.3935,2.3941,2.387,2.3869,2.3869,0,2.3699,2.3732,2.3761,2.3769,2.3787,2.38,2.3808,2.3821,2.3833,2.3849,2.3857,2.3876,2.3886,2.3901,2.3902,2.3889,2.3936,2.3918,2.3938,2.3938,2.3947,2.3946,2.4006,2.3956,2.3956,2.3956,2.3956,0,2.3743,2.3768,2.3775,2.3792,2.382,2.3822,2.385,2.3857,2.3869,2.3887,2.3883,2.3901,2.3903,2.3921,2.3923,2.395,2.3955,2.3957,2.3957,2.3957,2.3956,2.3962,2.3959,2.3957,2.3957,2.3957,2.3956,0,2.3781,2.3787,2.3818,2.3833,2.3837,2.3857,2.387,2.3887,2.3892,2.3916,2.3921,2.3929,2.3951,2.3955,2.398,2.3981,2.4013,2.4011,2.4009,2.4008,2.4028,2.4025,2.4092,2.4101,2.4046,2.4047,2.4047,0,2.3807,2.3827,2.3845,2.3857,2.3866,2.3886,2.3899,2.3902,2.3915,2.3934,2.3949,2.397,2.3987,2.4021,2.4029,2.4048,2.4046,2.4068,2.4048,2.4048,2.4045,2.4043,2.4045,2.4071,2.4072,2.4072,2.4072,0,2.3854,2.3856,2.3875,2.3895,2.3911,2.3927,2.3942,2.3952,2.3958,2.3973,2.3995,2.4009,2.4035,2.4056,2.4076,2.4084,2.4079,2.4079,2.4084,2.4083,2.4081,2.4082,2.4017,2.4077,2.4076,2.4076,2.4076,2.4076,2.3886,2.3903,2.3919,2.394,2.3952,2.3967,2.3983,2.3992,2.401,2.4032,2.4034,2.4058,2.4073,2.4099,2.4108,2.4127,2.412,2.4128,2.413,2.4132,2.4133,2.4079,2.4131,2.4131,2.4131,2.4131,2.4131,0,2.3931,2.3942,2.3962,2.3983,2.4,2.3996,2.4013,2.4027,2.4049,2.4064,2.4081,2.4107,2.4128,2.4138,2.4159,2.4172,2.4171,2.4177,2.4175,2.4177,2.4139,2.4131,2.4178,2.4178,2.4178,2.4178,2.4178,2.4178,2.3957,2.3985,2.399,2.4025,2.4035,2.4059,2.4069,2.4083,2.4095,2.4124,2.4142,2.4149,2.4162,2.4184,2.4203,2.4206,2.4213,2.422,2.4222,2.4185,2.418,2.4175,2.4168,2.4222,2.4222,2.4259,2.4259,2.4259]},{"header":{"parameterUnit":"m.s-1","parameterCategory":1,"la1":30.2991,"la2":30.254,"lo1":-89.0895,"lo2":-89.0444,"dy":0.0017,"dx":0.0017,"nx":28,"ny":28,"refTime":"2023-10-14T21:00:00:Z","depth":0,"parameterNumber":3,"parameterNumberName":"V-component_of_WINDS"},"data":[0,0,0,0,0,0,0,0,0,0,0,0,0,0,0,0,0,0,0,0,0,0,0,0,0,0,0,0,0,0,0,0,0,0,0,0,0,0,0,0,0,0,0,0,0,0,0,0,0,0,0,0,0,0,0,0,0,0,-6.608,-6.6081,0,-6.6222,-6.6223,-6.6225,-6.6141,-6.6137,-6.6133,-6.6129,-6.6268,-6.6275,-6.6283,0,0,0,0,0,0,0,0,0,0,0,0,0,-6.5729,-6.5736,-6.6079,-6.6081,-6.6083,-6.6222,-6.6223,-6.6225,-6.6142,-6.6137,-6.6132,-6.6127,-6.6266,-6.6274,-6.6283,0,0,0,0,0,0,0,0,0,0,0,0,0,-6.5877,-6.5738,-6.6079,-6.6058,-6.6058,-6.6221,-6.6224,-6.6226,-6.6143,-6.6137,-6.6131,-6.6125,-6.6263,-6.6274,-6.6285,-6.6475,0,0,-6.6319,-6.6324,0,0,0,0,0,0,0,0,-6.5869,-6.589,-6.6059,-6.606,-6.606,-6.6158,-6.6151,-6.6309,-6.6144,-6.611,-6.6129,-6.6122,-6.6236,-6.6249,-6.6288,-6.6481,-6.6487,-6.632,-6.6327,-6.6331,-6.6334,0,0,0,0,0,0,0,-6.5859,-6.5884,-6.6135,-6.6062,-6.6062,-6.604,-6.6054,-6.618,-6.6205,-6.6113,-6.6107,-6.6125,-6.6235,-6.6278,-6.6291,-6.6489,-6.6319,-6.6329,-6.6336,-6.6341,-6.6845,-6.6851,0,0,0,0,0,0,-6.5851,-6.5876,-6.6131,-6.614,-6.5948,-6.6051,-6.6067,-6.6132,-6.6203,-6.6209,-6.613,-6.6121,-6.6262,-6.6278,-6.6296,-6.6524,-6.6331,-6.6342,-6.6348,-6.6838,-6.6846,-6.6853,0,0,0,0,0,0,-6.5844,-6.5875,-6.6125,-6.6006,-6.6037,-6.6063,-6.6137,-6.6138,-6.6181,-6.6217,-6.622,-6.6171,-6.6258,-6.628,-6.6431,-6.6527,-6.6347,-6.6357,-6.683,-6.6841,-6.685,-6.698,0,0,0,0,0,0,-6.5834,-6.5873,-6.5946,-6.6009,-6.6043,-6.6261,-6.6143,-6.6145,-6.6202,-6.6191,-6.6256,-6.626,-6.6255,-6.6415,-6.6442,-6.6539,-6.6366,-6.6822,-6.6835,-6.6847,-6.6968,-6.6994,-6.7016,0,0,0,0,0,-6.5822,-6.5976,-6.5951,-6.5982,-6.6137,-6.6267,-6.6286,-6.6278,-6.621,-6.6284,-6.6306,-6.6258,-6.6512,-6.6431,-6.6461,-6.6563,-6.6816,-6.6831,-6.6846,-6.6957,-6.6989,-6.7015,0,0,0,0,0,0,-6.5921,-6.5984,-6.5956,-6.6135,-6.6197,-6.6252,-6.6345,-6.6312,-6.6392,-6.6378,-6.6363,-6.6378,-6.6537,-6.6564,-6.6473,-6.6751,-6.6653,-6.6675,-6.6727,-6.6757,-6.6781,-6.6771,-6.6375,0,0,0,0,0,-6.5965,-6.6067,-6.6115,-6.6268,-6.6301,-6.6318,-6.6374,-6.6363,-6.6425,-6.645,-6.6483,-6.6544,-6.6637,-6.6698,-6.6786,-6.6971,-6.6984,-6.7056,-6.708,-6.7099,-6.7118,-6.7219,-6.7251,-6.6903,-6.6903,-6.6902,0,0,-6.6054,-6.6101,-6.6166,-6.6289,-6.6336,-6.6441,-6.634,-6.6455,-6.6532,-6.6466,-6.6612,-6.6639,-6.6705,-6.6875,-6.6951,-6.6903,-6.7217,-6.7118,-6.7134,-6.7142,-6.7237,-6.727,-6.73,-6.6913,-6.6911,-6.691,0,0,-6.6271,-6.6317,-6.645,-6.6499,-6.6572,-6.6582,-6.6614,-6.6676,-6.6692,-6.6838,-6.6792,-6.6882,-6.7043,-6.7092,-6.7138,-6.7375,-6.7334,-6.7404,-6.753,-6.7628,-6.7655,-6.7679,-6.7764,-6.7795,-6.7422,-6.7423,-6.7423,0,-6.6373,-6.6531,-6.6522,-6.6642,-6.6697,-6.6645,-6.6779,-6.6826,-6.6923,-6.6961,-6.6907,-6.7109,-6.7149,-6.733,-6.7388,-6.7426,-6.7462,-6.7397,-6.7652,-6.7677,-6.7699,-6.778,-6.7812,-6.7431,-6.743,-6.7429,-6.7428,0,-6.6652,-6.6763,-6.6862,-6.6959,-6.7025,-6.7152,-6.716,-6.7228,-6.7212,-6.7228,-6.7377,-6.7424,-6.7521,-6.7563,-6.7546,-6.7742,-6.771,-6.7654,-6.7556,-6.7741,-6.7816,-6.7847,-6.7443,-6.744,-6.7437,-6.7435,0,0,-6.6936,-6.7028,-6.7065,-6.7109,-6.7185,-6.7269,-6.7392,-6.749,-6.7548,-6.7616,-6.7719,-6.7857,-6.7807,-6.7859,-6.7847,-6.7934,-6.8119,-6.7867,-6.7868,-6.7913,-6.8337,-6.8379,-6.8415,-6.8092,-6.8098,-6.8102,-6.8332,0,-6.7158,-6.7377,-6.7373,-6.7574,-6.7676,-6.7629,-6.7736,-6.7793,-6.7812,-6.7899,-6.7917,-6.8016,-6.7942,-6.7973,-6.8056,-6.8079,-6.8204,-6.8062,-6.8186,-6.8191,-6.8172,-6.8454,-6.8499,-6.8713,-6.8361,-6.8366,-6.837,0,-6.7447,-6.7528,-6.7741,-6.7803,-6.7846,-6.7943,-6.8032,-6.8117,-6.818,-6.8187,-6.8247,-6.8222,-6.8346,-6.8244,-6.8413,-6.8317,-6.8367,-6.8386,-6.8394,-6.8406,-6.8292,-6.8474,-6.8781,-6.8813,-6.8416,-6.8412,-6.8409,0,-6.7633,-6.7795,-6.7944,-6.7983,-6.8059,-6.8128,-6.8163,-6.8221,-6.828,-6.8357,-6.8395,-6.8484,-6.8533,-6.8602,-6.8602,-6.8528,-6.8774,-6.8671,-6.8782,-6.8782,-6.8836,-6.8833,-6.9156,-6.8868,-6.8867,-6.8867,-6.8866,0,-6.7882,-6.8014,-6.8029,-6.812,-6.8267,-6.826,-6.8404,-6.8432,-6.8484,-6.8579,-6.8541,-6.8631,-6.8625,-6.8714,-6.8714,-6.8855,-6.8877,-6.8885,-6.8884,-6.8889,-6.8888,-6.8922,-6.8907,-6.8875,-6.8873,-6.8872,-6.887,0,-6.8115,-6.813,-6.8289,-6.835,-6.8368,-6.8473,-6.8523,-6.861,-6.8625,-6.8745,-6.8773,-6.8796,-6.89,-6.8907,-6.9025,-6.9025,-6.9196,-6.9178,-6.9176,-6.9173,-6.9283,-6.9273,-6.964,-6.9688,-6.9368,-6.9371,-6.9374,0,-6.8274,-6.8375,-6.8447,-6.8509,-6.8549,-6.8649,-6.871,-6.8706,-6.8771,-6.8852,-6.8928,-6.9029,-6.911,-6.9277,-6.9303,-6.9394,-6.9378,-6.95,-6.9391,-6.9394,-6.9381,-6.9375,-6.9385,-6.9522,-6.9525,-6.9528,-6.953,0,-6.8553,-6.8556,-6.8647,-6.8741,-6.8815,-6.8888,-6.8956,-6.9009,-6.9013,-6.9087,-6.9195,-6.9258,-6.9381,-6.9481,-6.957,-6.9602,-6.9568,-6.9565,-6.9595,-6.9602,-6.9597,-6.9602,-6.9235,-6.9556,-6.9554,-6.9552,-6.955,-6.9549,-6.8754,-6.8843,-6.8908,-6.901,-6.9061,-6.9126,-6.9211,-6.9238,-6.9328,-6.943,-6.9421,-6.9541,-6.9601,-6.9718,-6.9758,-6.9849,-6.9807,-6.9851,-6.9863,-6.9874,-6.9886,-6.9583,-6.9865,-6.9864,-6.9864,-6.9863,-6.9863,0,-6.9033,-6.9073,-6.9167,-6.9265,-6.9346,-6.9308,-6.9381,-6.945,-6.9557,-6.9617,-6.9698,-6.9822,-6.9919,-6.9954,-7.0048,-7.0115,-7.0101,-7.014,-7.0135,-7.0143,-6.9918,-6.9882,-7.0149,-7.0149,-7.0149,-7.0149,-7.0149,-7.0149,-6.9187,-6.9335,-6.9346,-6.9518,-6.9556,-6.9675,-6.972,-6.9779,-6.9828,-6.9969,-7.005,-7.0073,-7.0123,-7.0221,-7.0308,-7.0316,-7.0352,-7.0398,-7.0399,-7.0188,-7.0159,-7.0131,-7.0098,-7.0406,-7.0406,-7.0617,-7.0619,-7.062]}]]